Theta_e
306 306 306 306 306 306 306 306 306 306 306 307 307 307 307 307 307 307 308 308 308 308 308 309 308 308 308 308 308 308 307 303 302 303 306 308 303 304 304 305 305 308 311 312 311 312 314 314 313 313 315 316 318 318 316 318 316 315 322 324 320 321 320 319 321 316 313 316 316 314 313 321 338 344 344 351 353 352 356 352 346 346 345 345 344 342 342 342
306 306 306 306 306 306 306 306 306 306 306 306 307 307 307 307 306 307 307 307 308 307 308 308 308 308 308 308 307 308 306 302 304 306 309 304 304 305 304 305 305 308 311 311 311 310 314 315 313 314 318 318 316 316 317 318 316 318 321 320 321 322 319 318 320 317 314 315 314 316 312 313 333 339 337 355 358 353 362 356 346 347 347 345 343 342 343 342
306 306 306 306 306 305 306 306 306 306 306 306 306 307 307 307 306 306 307 307 308 307 307 308 308 308 308 308 307 307 304 303 307 310 308 304 306 305 304 304 305 308 310 312 312 309 311 313 312 316 318 319 318 316 316 318 317 319 319 318 322 320 317 317 316 315 314 314 314 315 314 314 319 320 337 361 357 354 367 363 356 356 349 347 345 342 343 342
306 306 306 306 305 305 306 306 306 306 306 306 306 306 306 306 306 306 307 307 307 307 307 307 307 307 308 308 307 304 303 305 307 306 309 310 310 308 308 305 304 309 311 312 311 309 310 310 312 317 318 320 320 315 315 319 317 317 317 319 321 316 315 317 314 316 315 313 314 313 314 315 310 322 350 360 353 357 364 360 364 367 353 346 345 342 342 343
306 306 305 305 305 305 305 305 306 306 306 306 306 306 306 306 306 306 307 307 307 307 307 307 307 307 307 307 305 304 305 307 304 309 314 313 310 310 311 308 304 309 313 311 310 310 310 310 313 317 319 320 319 316 318 318 315 315 316 318 319 314 314 316 315 317 314 313 313 313 314 312 317 339 356 356 360 363 358 354 356 355 348 344 344 343 342 342
305 305 305 305 305 305 305 305 305 305 306 305 306 306 306 306 306 306 306 307 307 307 306 307 307 307 307 305 304 304 304 302 304 310 314 314 309 306 312 311 305 309 314 312 311 310 311 312 313 316 319 320 319 319 321 316 312 316 316 315 316 315 315 315 315 314 312 312 312 314 313 311 324 342 342 344 349 340 339 350 352 346 343 343 343 342 343 343
305 305 305 305 304 305 305 305 305 305 305 305 305 305 306 306 306 306 306 306 306 306 306 306 306 307 307 304 306 308 305 305 305 306 310 310 306 306 313 311 305 310 314 311 310 311 313 314 312 315 318 318 319 321 320 315 311 315 317 315 315 315 315 314 314 313 312 312 312 313 311 313 322 326 324 330 338 337 341 349 349 344 342 343 343 343 343 342
305 305 305 304 303 304 305 305 304 305 305 305 305 305 305 305 305 306 306 306 306 306 306 306 306 307 306 304 308 311 308 308 303 302 305 303 304 309 312 308 307 312 313 311 310 310 313 314 312 314 318 318 319 318 317 316 314 313 315 315 314 314 315 314 313 313 313 312 311 311 312 314 313 317 327 333 342 347 348 347 345 343 343 343 343 344 342 342
304 304 304 304 303 303 304 305 304 305 305 304 305 305 305 305 305 305 305 305 305 306 306 305 306 306 305 305 307 306 306 306 303 305 305 304 307 310 310 309 311 313 312 311 309 309 312 314 313 314 317 317 316 317 316 317 317 314 314 315 314 315 314 314 314 313 313 312 312 312 314 314 310 315 328 336 344 349 345 345 344 342 344 344 344 343 342 342
304 304 303 304 304 304 304 304 304 304 304 304 305 305 305 305 304 305 305 305 305 306 305 305 306 305 305 306 305 301 304 306 309 313 311 309 309 310 312 312 313 314 312 310 307 309 312 312 314 315 317 317 316 317 315 315 316 315 315 315 315 315 313 312 314 313 311 312 313 312 314 314 311 312 320 337 346 348 345 346 343 343 346 344 344 342 341 342
303 303 303 303 304 304 304 304 304 304 304 304 304 305 305 304 304 305 304 304 305 305 305 305 306 306 306 307 305 300 304 308 311 315 312 312 312 311 314 314 314 315 313 309 307 309 311 311 314 315 316 317 316 316 315 315 314 313 313 312 313 312 311 311 312 312 310 312 314 312 313 313 312 312 322 344 348 347 347 347 344 344 345 343 344 343 341 341
303 302 303 303 303 304 304 304 304 304 304 304 304 304 304 304 304 304 304 304 305 305 305 305 305 306 306 307 307 304 306 312 312 310 309 312 314 312 313 314 315 316 314 310 308 308 310 313 315 317 318 317 315 313 314 315 311 311 312 312 315 313 312 313 313 312 310 312 313 312 312 313 315 311 322 345 349 347 348 347 346 346 345 344 344 344 343 341
303 303 303 303 302 303 303 303 303 303 304 303 304 304 304 304 304 304 304 304 305 305 305 305 305 305 306 308 307 302 304 310 309 306 304 307 311 313 312 313 314 315 314 311 308 308 310 313 316 319 317 316 318 312 310 313 309 311 311 311 314 313 314 313 310 311 310 312 312 312 312 315 320 313 321 345 350 348 349 347 347 347 347 347 345 345 344 342
302 303 302 302 302 303 303 304 303 303 303 303 303 304 303 303 303 304 304 304 305 305 305 305 306 307 308 308 303 299 302 303 303 303 302 302 308 313 312 312 313 313 313 310 309 309 309 311 314 317 315 317 319 313 312 312 311 313 309 312 314 310 315 316 312 313 310 311 312 313 313 315 319 312 321 344 350 349 351 348 347 348 348 348 347 346 345 343
302 302 302 302 302 302 303 303 303 303 303 303 303 303 303 303 303 304 303 304 303 304 306 306 306 307 306 305 302 302 305 305 304 302 301 302 307 312 312 312 313 313 312 310 309 309 308 310 313 316 316 316 314 313 316 314 316 317 309 315 317 309 315 318 313 313 311 312 311 312 313 314 316 311 323 344 351 349 351 349 347 349 350 348 348 346 346 344
302 301 302 303 303 302 302 303 303 302 302 302 302 303 302 302 302 302 302 302 302 304 306 306 306 307 308 306 302 304 306 308 308 305 304 303 305 310 311 313 314 314 312 310 310 310 309 310 312 315 315 313 311 314 318 315 319 321 313 317 318 310 313 314 311 313 312 312 310 312 315 315 314 310 322 342 350 349 349 350 348 349 350 349 349 347 347 345
301 301 302 302 303 303 302 302 302 302 302 302 302 302 301 301 301 301 302 302 303 305 306 307 306 307 310 305 304 307 306 308 307 307 308 304 304 310 313 314 313 311 311 310 310 309 310 311 313 316 315 312 313 314 316 315 318 319 314 316 317 313 311 311 312 312 311 313 311 312 314 315 314 313 325 342 349 349 350 350 350 350 350 348 347 347 347 346
301 301 302 302 302 302 302 302 302 302 302 302 302 301 301 303 303 302 302 303 305 305 305 308 306 308 311 306 306 308 307 309 308 308 310 307 307 310 313 313 309 309 310 310 310 309 311 313 315 317 314 310 312 313 317 319 320 319 316 316 315 313 312 312 314 313 312 313 313 312 313 315 315 315 329 344 348 349 349 349 349 348 348 347 346 346 346 345
301 301 302 302 302 302 302 302 302 302 302 302 301 301 304 306 305 304 305 305 306 303 303 308 307 307 307 307 307 306 306 309 309 310 311 309 309 311 312 310 309 311 311 310 311 310 312 314 315 316 314 311 312 313 318 321 320 318 319 320 316 312 314 314 315 315 313 313 313 314 314 315 315 320 331 342 346 347 347 347 347 347 346 346 344 344 345 345
301 302 302 302 302 301 301 302 302 302 301 302 301 300 304 310 310 309 308 307 306 304 303 308 308 308 306 306 307 306 307 308 309 309 310 310 310 312 312 310 311 312 312 312 313 312 314 315 315 317 316 315 315 315 317 318 316 314 316 318 314 312 315 315 315 315 312 313 316 315 315 314 317 325 330 335 343 345 346 348 347 347 346 344 343 343 345 345
301 302 302 301 301 301 301 302 301 301 301 302 301 300 303 308 310 309 307 308 307 306 306 306 307 308 306 306 306 306 307 309 310 310 310 311 311 313 313 312 313 314 313 315 314 313 314 316 316 317 318 318 319 318 316 314 313 314 314 314 313 313 316 315 314 315 312 314 319 317 314 312 314 322 325 330 341 343 344 347 347 346 345 343 342 344 345 344
301 302 302 301 301 301 301 301 301 301 301 301 301 300 301 302 304 304 304 306 306 305 306 305 305 306 305 305 306 306 308 309 312 312 310 310 312 313 314 313 315 315 315 316 317 315 314 318 319 316 315 318 320 320 317 316 319 320 316 313 314 315 315 316 318 318 314 314 320 317 312 313 317 321 322 327 337 341 340 341 342 344 344 343 343 344 344 342
301 301 301 301 300 301 301 301 301 301 301 301 300 299 300 301 303 303 303 305 307 305 305 306 306 306 305 306 306 306 309 310 311 312 310 311 314 313 313 314 315 316 315 316 319 318 317 320 319 314 312 316 318 319 320 319 322 324 319 314 315 315 313 316 321 321 316 314 317 318 316 318 320 323 325 322 324 332 335 339 341 340 340 340 340 342 342 341
301 301 301 301 300 301 301 301 300 300 300 301 300 301 301 303 304 304 303 306 309 308 306 307 307 307 307 307 307 308 309 310 311 312 311 312 313 313 313 314 315 315 315 316 317 319 319 318 316 313 312 316 317 318 319 317 316 320 322 319 316 316 314 315 319 321 323 319 316 319 320 318 319 326 331 323 323 330 332 341 344 338 338 339 339 343 342 342
301 301 301 301 300 301 300 300 300 301 300 300 301 303 303 303 303 303 305 310 313 311 308 307 307 308 308 308 308 310 310 310 312 311 310 312 312 312 313 313 315 315 315 316 316 318 319 314 312 313 312 315 316 317 318 318 316 316 320 321 317 317 315 315 318 320 325 321 313 316 318 314 319 331 334 326 330 335 331 337 340 337 340 340 341 345 343 341
300 300 301 301 300 300 300 300 301 300 300 301 302 303 303 303 303 303 306 313 316 312 309 308 309 309 309 309 309 310 311 311 312 311 309 311 312 312 312 312 314 315 314 315 316 318 318 314 314 315 314 314 315 315 315 317 318 315 317 320 316 315 315 317 318 316 320 319 314 316 317 314 319 331 334 328 331 335 331 333 334 333 337 338 342 346 343 341
300 300 301 301 300 300 300 300 300 299 301 302 302 302 302 302 303 303 307 311 312 311 309 307 307 308 308 310 309 311 313 312 311 310 309 311 311 312 313 312 313 314 313 315 317 317 316 314 315 316 316 314 314 315 314 314 317 317 321 319 314 315 316 320 320 315 319 319 317 324 324 317 318 326 330 329 332 333 332 333 332 332 334 335 340 343 341 340
300 300 301 300 300 300 300 300 300 299 300 301 301 302 302 302 304 306 310 314 311 308 309 307 307 307 308 310 310 311 313 312 312 310 309 311 312 312 313 312 314 313 313 316 317 317 317 317 317 315 315 314 314 317 315 312 314 319 321 316 314 317 319 321 320 322 327 318 315 328 325 315 317 325 329 330 334 334 332 333 332 333 334 333 335 337 337 337
300 300 300 300 300 300 300 300 299 299 299 299 300 301 301 302 306 309 313 317 313 307 309 309 307 307 308 310 310 310 310 311 313 311 309 310 311 312 313 312 313 313 312 314 316 316 315 316 317 314 315 315 316 317 313 311 313 317 317 314 316 319 321 323 321 325 329 319 317 326 323 316 319 329 334 332 334 335 333 334 333 332 333 333 332 333 333 332
299 299 299 300 300 299 299 299 299 298 298 300 300 300 301 305 310 312 313 316 314 309 308 307 307 307 310 311 310 310 310 310 310 309 309 310 310 310 310 310 312 314 314 313 315 316 314 314 315 314 316 316 315 314 310 311 312 313 316 316 317 321 326 332 332 327 322 319 324 325 322 321 319 328 337 335 334 335 334 335 334 332 332 331 330 330 329 328
298 299 299 300 300 300 299 299 299 299 300 300 300 300 306 310 313 315 315 315 314 312 307 305 307 309 311 311 310 309 310 309 309 309 310 310 310 311 310 310 312 315 314 311 314 315 312 312 314 316 317 314 313 312 308 309 311 315 321 318 316 322 327 330 332 327 320 322 326 321 319 323 323 329 335 335 334 334 334 336 335 334 333 330 329 328 326 326
299 299 299 299 299 300 300 300 300 300 301 299 299 304 312 313 312 314 316 315 316 316 310 307 307 310 311 310 310 309 309 309 308 309 310 309 310 311 312 313 314 314 314 313 315 316 314 314 315 314 315 314 314 314 310 309 311 316 321 319 317 320 319 320 323 324 325 324 319 315 317 323 329 332 333 334 334 333 332 333 333 333 333 330 328 327 326 325
299 299 299 299 299 299 299 299 298 299 299 298 301 309 315 313 312 313 312 313 316 317 316 312 307 309 311 309 309 309 308 310 309 309 309 309 311 311 311 314 314 317 320 317 315 314 314 315 314 311 313 314 314 315 314 313 312 313 317 318 319 320 316 316 318 320 322 320 314 315 321 330 335 334 332 332 333 332 331 330 330 330 330 330 328 327 326 325
299 298 298 299 299 298 298 298 298 299 299 299 305 312 314 312 315 315 312 310 312 317 318 313 308 309 310 309 309 308 308 309 309 310 309 309 311 311 311 311 310 317 323 317 313 316 317 317 317 313 312 314 313 315 317 316 312 312 315 317 319 323 323 320 321 322 319 316 319 321 322 331 340 336 331 331 330 330 331 329 328 329 328 329 327 326 326 325
298 298 298 299 298 298 298 298 298 299 299 302 310 314 312 311 314 318 317 313 312 319 319 312 309 310 309 309 308 308 311 310 308 310 310 310 311 312 312 311 311 314 318 316 314 315 315 319 322 316 311 313 313 313 315 314 312 311 313 315 315 321 327 324 323 325 323 321 325 328 326 327 333 332 328 329 329 329 330 328 328 328 327 327 327 327 327 326
298 298 299 299 299 299 298 298 299 299 300 304 310 311 309 310 313 315 316 313 311 319 319 311 309 310 309 311 309 307 311 312 310 310 310 309 311 312 311 312 312 312 316 322 321 317 314 319 322 315 311 313 313 314 313 312 316 314 312 316 315 315 323 322 317 319 326 324 319 323 332 332 331 333 331 329 329 330 330 328 327 328 327 327 327 327 327 327
299 300 300 300 301 300 299 299 299 299 302 306 308 310 307 307 310 311 312 310 309 315 316 310 311 312 310 312 310 307 310 312 309 311 311 310 312 313 312 313 312 310 315 322 322 319 319 323 322 315 312 312 312 314 313 312 316 315 313 316 314 311 317 321 319 321 326 325 318 322 335 337 333 336 333 331 332 331 330 329 328 327 327 327 327 327 325 325
300 300 301 303 303 302 301 300 299 300 306 308 308 311 311 309 309 309 309 308 307 312 314 310 312 314 312 313 313 308 309 312 311 311 310 310 313 314 313 313 312 311 314 316 316 315 317 322 322 316 313 312 312 314 314 312 312 314 315 315 314 316 318 316 318 320 319 321 322 326 332 334 333 334 334 334 334 332 331 329 328 328 327 327 326 325 323 321
300 301 304 305 304 303 301 299 300 304 309 309 308 309 310 311 310 308 307 307 307 310 312 309 309 312 312 314 314 310 309 312 312 311 310 308 311 314 316 315 312 311 312 313 315 318 319 320 319 317 313 312 315 317 318 316 311 311 313 311 315 325 324 316 318 321 319 320 324 329 331 333 334 332 333 335 332 332 332 330 329 328 327 325 324 322 321 319
301 304 307 305 303 303 301 300 304 308 310 311 310 308 307 308 307 305 306 306 306 310 312 310 308 310 311 311 312 310 310 311 311 314 317 317 315 316 319 321 317 312 311 312 313 317 317 315 319 323 317 315 318 317 318 319 314 313 316 313 314 318 317 315 316 316 319 325 327 330 333 334 333 330 332 333 330 330 331 330 330 328 324 323 320 319 319 317
303 307 308 305 303 302 302 303 308 311 313 312 310 307 306 306 305 305 305 305 306 308 310 308 307 309 312 313 311 310 311 315 319 324 326 323 320 320 319 323 322 312 309 311 313 316 317 316 324 329 323 322 324 319 315 316 315 316 317 315 317 317 316 319 317 313 319 327 326 330 336 333 330 330 331 331 330 329 329 328 327 324 321 319 318 317 316 315
305 309 308 305 303 302 304 308 310 311 313 312 308 307 307 306 305 304 304 305 306 306 306 307 307 309 312 313 312 315 319 323 329 332 329 324 324 323 319 322 323 315 312 314 315 322 327 322 321 319 319 323 322 317 316 317 319 322 321 320 320 318 321 328 328 320 318 320 320 329 337 331 327 330 331 330 329 329 327 325 323 320 318 316 314 314 313 312
307 309 307 304 303 303 305 309 309 310 311 311 308 307 307 306 305 305 304 305 307 306 307 308 310 310 310 309 312 319 322 323 325 328 329 326 324 321 320 323 325 322 321 320 316 321 325 322 318 316 320 327 323 319 321 323 326 329 329 327 323 319 324 332 334 332 326 322 324 331 333 328 326 329 330 329 328 326 324 322 321 318 316 314 312 311 310 309
307 308 306 304 303 304 306 309 311 311 310 309 308 309 309 307 306 303 302 305 306 307 309 311 311 310 309 312 317 319 320 323 324 322 326 328 324 321 321 324 328 328 326 321 317 318 318 318 321 321 322 327 326 323 324 326 331 332 331 329 324 319 321 322 325 332 330 323 325 330 331 327 329 330 329 328 325 323 322 319 318 316 314 313 311 310 308 307
306 308 308 305 304 305 308 310 311 311 310 309 312 314 312 312 310 305 302 304 305 307 310 310 310 310 311 315 319 319 319 325 325 322 326 328 324 322 321 323 329 334 333 328 325 326 323 320 325 331 330 328 329 328 325 326 330 327 327 330 326 322 323 320 321 328 324 318 322 334 333 328 329 330 327 326 323 321 320 317 315 314 313 312 310 309 308 307
307 309 307 306 305 305 308 309 310 314 315 313 312 314 314 316 317 311 307 306 305 307 310 310 311 312 314 318 321 321 320 322 323 324 329 330 325 322 322 323 327 332 332 329 329 332 329 322 323 332 334 332 333 331 325 326 330 328 326 329 328 326 326 324 324 326 323 320 324 333 332 329 331 329 326 324 322 320 318 316 315 313 311 310 309 308 307 306
306 308 307 306 306 307 308 309 310 314 317 314 312 315 317 317 317 314 309 308 308 308 309 311 312 312 313 317 322 321 319 321 323 324 326 327 324 323 324 322 324 329 330 328 327 332 334 327 322 324 324 323 325 325 322 325 330 329 327 328 328 328 329 329 330 328 324 323 325 327 328 332 332 328 325 324 320 319 318 315 314 312 310 309 308 307 307 306
307 308 308 309 309 309 309 310 311 313 315 315 315 317 318 316 317 315 310 309 311 310 312 316 315 313 314 318 322 322 320 322 323 321 323 326 324 326 326 320 321 328 331 329 327 331 335 329 323 323 322 320 321 321 321 323 322 319 321 323 323 326 332 337 336 327 322 323 327 327 329 331 330 327 324 321 318 317 315 313 312 310 309 308 307 306 306 305
306 307 309 311 312 311 310 311 311 312 313 314 315 317 317 317 318 316 310 311 314 311 314 319 315 313 316 321 327 325 321 324 325 319 322 325 323 326 327 321 321 326 333 334 328 326 331 327 321 322 324 320 320 320 321 322 321 318 318 319 319 321 325 329 330 325 323 327 329 328 328 326 322 321 319 316 314 313 311 310 309 308 308 307 306 305 305 304
306 307 309 311 312 311 311 312 313 313 314 314 315 316 316 315 317 315 310 312 315 312 313 315 312 310 313 318 324 322 318 324 327 321 322 324 322 325 327 321 321 325 331 333 326 323 328 326 321 323 327 323 320 319 319 320 321 321 319 318 319 322 323 323 325 324 326 328 326 325 326 321 315 314 313 312 311 310 309 308 307 307 307 306 305 304 303 303
306 307 308 310 312 312 312 314 314 315 315 315 316 316 316 315 316 314 310 309 312 314 313 313 311 310 311 312 315 315 314 319 322 321 323 323 319 321 322 319 321 327 331 329 326 328 331 325 320 326 330 326 321 319 320 320 321 322 320 318 319 323 323 322 322 323 325 326 324 324 325 320 313 311 310 309 309 308 308 307 306 306 305 304 304 303 303 302
305 306 306 309 313 313 313 314 314 314 315 316 316 315 315 315 314 315 314 310 310 312 311 311 312 313 313 312 311 312 313 313 312 312 314 315 314 315 316 316 318 324 329 328 325 327 328 324 323 328 330 326 321 322 324 326 327 325 320 317 318 320 321 320 319 320 322 323 323 324 322 316 311 310 310 309 308 307 306 305 305 304 303 303 303 303 302 302
Wind_Speed
12 12 13 13 13 13 13 13 13 13 13 12 12 12 13 13 13 13 13 14 14 14 15 15 15 16 15 15 15 16 18 20 21 15 10 22 24 17 17 15 8 7 13 10 12 12 8 6 5 7 7 3 1 1 2 1 2 2 3 2 1 3 4 5 6 5 2 4 6 7 5 2 2 1 1 3 7 4 4 5 3 4 5 4 6 11 17 19
13 12 12 13 13 13 13 13 13 13 13 13 12 12 13 13 13 13 13 14 14 14 15 15 15 15 15 15 15 15 19 20 18 15 23 29 24 21 22 18 9 10 17 14 14 14 9 4 5 7 5 2 0 1 2 1 2 3 3 2 4 5 5 5 6 4 2 4 7 9 3 4 4 3 3 3 2 2 4 3 3 2 3 6 9 12 15 17
15 14 12 12 13 13 13 13 13 13 13 13 13 13 13 13 13 13 13 14 14 14 15 15 15 15 15 15 14 16 18 15 9 13 25 23 19 22 23 22 15 13 19 16 14 12 8 9 12 8 4 2 0 1 2 1 2 3 3 2 6 5 5 5 6 6 6 5 7 9 5 1 4 3 2 5 3 1 3 2 2 2 3 6 8 10 13 15
13 14 14 13 14 14 14 14 13 13 13 13 13 13 13 13 13 13 13 14 14 14 14 15 15 15 15 14 15 16 13 8 4 9 11 7 8 11 16 23 19 16 19 15 11 9 7 11 12 6 4 1 2 2 3 3 2 2 3 4 6 3 4 6 7 8 7 5 5 4 4 3 4 1 3 7 5 1 4 6 5 7 8 10 9 10 12 13
12 13 14 14 15 15 14 14 14 13 13 13 13 13 13 13 13 13 14 14 14 14 15 15 15 16 15 15 14 12 7 3 4 4 3 3 3 8 7 18 22 19 18 14 9 10 9 10 8 3 4 2 0 2 3 4 4 2 3 5 6 3 4 6 6 6 3 1 4 3 2 3 2 2 4 8 6 4 5 6 6 7 9 11 10 11 11 11
12 13 13 13 14 14 15 14 15 14 14 14 13 13 13 13 13 13 13 14 14 14 14 14 15 15 16 15 10 6 1 2 6 0 4 2 9 15 7 15 24 20 18 16 13 13 9 8 6 3 3 2 4 4 4 3 3 2 3 3 6 6 6 6 4 4 2 3 4 4 4 2 3 2 2 4 5 6 5 4 5 6 8 8 9 10 9 10
12 13 13 14 14 14 14 14 15 14 14 14 14 14 13 14 13 13 13 14 14 13 14 14 14 14 15 13 5 1 2 7 15 8 6 13 16 16 4 17 24 22 21 18 15 11 7 7 6 5 5 3 4 6 4 0 2 4 4 4 6 7 8 7 7 7 2 2 6 2 6 4 3 3 1 1 4 5 2 5 8 8 9 8 8 8 8 9
12 13 14 15 16 16 15 15 15 15 15 14 14 14 13 14 13 14 14 14 14 13 13 13 13 13 14 10 1 2 1 13 25 19 17 20 17 10 7 20 24 24 22 19 16 11 7 8 7 5 5 4 4 5 4 1 1 4 5 5 4 5 7 7 7 9 7 6 4 2 7 5 3 3 4 3 5 4 4 8 9 9 9 7 7 7 7 8
14 14 16 17 17 16 16 15 14 15 15 15 14 14 14 14 14 14 14 14 13 12 12 12 12 11 11 7 3 2 6 13 18 17 16 16 12 5 14 21 25 24 18 16 16 13 8 7 7 5 5 5 5 4 4 3 3 5 7 5 5 6 7 6 8 8 6 5 1 3 8 7 3 1 2 3 1 4 6 9 9 9 8 7 6 7 7 8
14 16 16 16 15 15 15 15 15 15 15 15 15 14 14 14 14 14 14 14 12 12 12 10 10 9 8 4 4 2 7 6 7 7 7 7 6 12 19 23 26 23 16 12 14 14 8 7 7 5 5 4 4 3 4 5 4 5 6 5 7 8 7 4 7 7 3 4 2 3 8 6 4 1 2 3 5 6 7 9 8 8 7 7 6 6 6 7
15 16 16 16 15 14 14 15 15 15 15 15 15 15 15 15 15 14 14 14 12 11 10 9 9 7 4 2 3 5 5 2 3 6 5 2 10 18 21 24 26 22 16 10 13 14 7 8 9 4 2 2 4 2 2 5 3 4 5 2 6 6 6 4 7 6 1 4 6 7 5 5 6 1 4 3 7 7 8 10 8 8 6 7 6 5 5 6
15 15 16 16 16 16 15 15 15 15 16 15 15 16 16 16 15 15 14 13 12 10 9 9 7 3 2 1 6 14 6 2 4 8 7 1 9 18 19 22 24 21 18 11 11 13 8 10 10 5 2 3 3 1 2 4 2 2 5 1 7 6 6 6 6 5 5 3 5 8 0 5 2 3 5 3 7 6 8 9 8 7 5 6 5 5 5 5
15 15 16 16 16 16 16 16 16 16 16 16 16 17 16 17 15 15 14 13 11 10 9 7 5 3 1 1 11 17 13 9 7 11 13 7 6 13 14 16 19 19 17 11 7 12 12 8 7 5 3 3 1 1 1 1 1 1 3 2 4 6 6 7 2 2 6 3 5 9 1 6 6 8 6 3 8 8 8 8 8 6 5 5 5 5 5 5
15 16 17 17 16 16 16 15 16 16 16 17 17 17 18 17 16 16 14 13 11 9 8 4 3 2 2 7 13 12 13 17 18 22 19 10 10 11 10 11 13 15 15 9 3 6 16 10 3 3 1 2 1 2 3 4 2 0 1 1 1 1 4 8 2 4 5 3 5 9 3 6 6 8 7 6 9 11 10 9 8 7 5 5 5 6 5 5
16 17 17 17 16 16 17 15 15 16 16 17 18 18 19 19 18 16 14 13 10 6 4 2 4 3 0 10 14 7 8 13 19 26 19 10 13 10 11 13 11 13 13 11 4 1 13 12 2 2 2 1 2 3 2 3 3 2 2 2 3 3 5 8 3 6 5 1 3 7 3 5 5 8 7 6 8 10 11 10 10 8 7 6 6 5 5 5
17 17 16 15 15 15 16 16 16 16 17 18 19 20 21 21 19 17 14 11 6 4 3 2 5 5 1 7 7 4 6 8 12 17 15 16 16 10 11 13 8 10 10 9 8 4 7 9 3 2 1 1 4 4 2 2 3 3 1 3 1 3 3 5 3 2 2 1 1 3 2 2 4 6 4 4 8 7 8 10 11 9 7 7 6 5 5 5
16 17 15 14 14 14 14 15 16 16 17 18 20 22 22 20 17 14 10 6 3 6 5 3 5 5 5 7 5 5 6 8 9 9 13 19 18 13 11 8 5 8 7 4 6 5 3 5 2 1 1 2 3 4 3 1 3 3 1 2 2 2 2 2 2 3 2 3 1 1 2 3 6 4 5 6 7 7 7 9 11 9 7 7 6 5 5 6
16 16 14 14 14 14 14 14 15 16 17 18 21 23 18 11 6 5 5 9 7 5 4 2 4 3 5 8 6 5 4 4 7 7 13 18 18 16 10 6 7 9 6 3 3 4 2 1 2 2 1 2 3 4 4 5 4 3 1 3 1 1 1 3 3 2 3 3 1 1 2 6 7 5 6 7 6 7 6 6 7 6 7 7 5 5 6 7
16 15 13 14 15 15 15 14 14 15 16 18 20 17 7 6 6 6 9 9 6 3 3 4 6 3 3 5 4 4 10 9 6 7 12 16 16 14 8 8 8 8 6 3 2 4 2 2 2 4 3 4 5 6 6 6 7 7 4 5 3 0 3 4 5 5 0 2 2 4 5 5 5 5 7 7 5 6 4 2 3 5 6 6 3 4 7 8
16 14 13 13 13 15 16 14 14 15 15 16 18 13 1 3 3 3 3 5 6 5 3 5 9 5 5 3 2 9 12 7 3 5 13 17 17 12 4 4 5 4 5 5 5 3 4 4 3 5 6 6 8 7 7 6 7 7 5 5 3 2 3 5 5 5 3 3 4 7 6 5 6 8 7 5 3 5 6 4 4 5 6 4 3 5 8 9
15 14 13 13 14 14 15 14 14 14 13 14 14 8 1 1 1 1 1 5 11 12 10 7 11 11 10 8 6 11 8 5 6 4 13 17 17 12 2 2 4 2 3 5 5 2 4 5 5 6 8 8 7 7 7 6 6 5 4 3 1 2 4 6 4 4 1 3 4 6 5 4 6 6 4 2 4 5 7 7 7 7 6 4 5 7 9 7
13 13 13 13 14 13 14 14 14 13 14 14 10 3 3 2 2 2 2 4 9 14 16 13 11 14 16 17 14 6 2 4 8 6 11 14 11 9 3 3 5 3 3 4 5 3 3 4 7 7 7 6 5 5 7 6 5 4 3 3 1 3 3 6 4 4 3 2 4 3 5 2 4 4 4 3 1 3 2 2 3 5 6 5 5 7 6 2
13 12 13 13 13 14 13 14 14 15 16 13 7 6 4 1 4 8 3 2 7 8 11 12 11 11 12 15 16 7 2 5 5 7 10 13 5 7 7 5 5 4 3 4 6 6 3 5 7 6 7 8 5 4 8 6 4 4 4 4 2 3 1 3 4 4 3 1 2 3 6 3 5 4 4 5 3 3 4 2 2 1 3 3 2 2 3 4
13 12 12 13 14 14 13 15 16 14 11 10 11 11 5 4 10 11 2 2 6 5 7 12 10 8 11 11 8 10 5 5 5 6 10 13 5 5 7 5 5 4 3 5 7 7 5 5 5 8 7 8 6 4 7 6 1 0 3 5 3 4 3 4 4 6 4 2 2 6 5 5 6 5 5 7 5 5 6 6 5 3 2 3 3 4 4 4
12 12 12 12 13 13 15 16 12 7 6 8 10 7 4 8 12 7 1 1 4 4 4 8 6 6 11 8 9 10 4 4 6 6 9 13 9 6 4 3 4 4 4 7 7 5 5 4 6 9 5 6 7 4 5 7 3 2 3 6 7 6 5 4 4 5 4 3 2 5 6 3 6 7 7 6 7 7 7 8 7 6 5 3 2 3 4 5
12 13 12 11 12 14 13 9 4 6 10 7 6 3 5 13 13 4 2 2 3 4 2 5 4 8 10 8 9 8 3 4 9 11 10 12 11 6 4 2 2 4 6 6 4 2 3 4 6 8 6 6 6 4 4 6 6 1 5 8 8 6 4 4 2 2 2 1 1 4 6 2 4 7 7 6 6 7 7 9 10 8 7 4 1 4 4 5
12 13 12 11 11 12 9 5 6 11 7 3 3 5 11 18 10 5 2 4 4 3 4 2 2 9 10 9 11 8 2 2 4 8 9 11 9 3 4 4 2 4 4 4 2 2 3 5 5 5 5 5 5 3 5 6 8 3 6 8 9 7 6 5 3 3 2 3 2 4 5 5 1 3 6 6 4 8 9 10 10 9 9 6 1 3 5 5
12 13 11 10 11 10 9 10 12 10 6 4 7 11 19 19 3 6 1 2 3 1 4 2 3 8 6 8 13 8 4 4 5 4 8 14 9 4 5 6 5 6 4 6 4 4 4 7 7 7 5 3 4 5 8 9 5 5 5 7 7 6 6 4 5 3 1 1 2 6 3 6 1 4 5 5 5 8 9 9 10 10 9 7 4 4 5 5
12 12 11 10 11 11 11 12 12 10 9 10 14 19 23 12 3 3 2 1 3 1 2 2 4 5 4 7 11 7 2 2 3 2 6 12 7 3 4 5 7 8 4 5 6 4 3 7 9 9 6 5 6 5 9 11 5 5 5 6 4 5 4 3 5 3 3 3 3 6 3 5 2 4 4 4 4 5 6 6 7 7 7 7 7 6 6 5
13 13 12 11 11 11 10 13 17 14 11 13 18 23 16 1 4 1 1 3 4 1 1 1 3 4 7 8 7 7 3 1 2 4 4 5 3 3 3 3 6 6 2 2 5 3 1 2 5 6 6 6 6 6 9 12 7 4 6 6 6 5 5 4 3 3 4 1 5 6 1 5 1 3 2 2 2 2 3 3 4 5 6 7 7 7 7 6
14 13 11 11 12 11 8 9 11 6 5 13 22 19 5 3 2 2 4 4 3 1 1 2 3 4 11 10 6 6 4 2 3 7 5 3 3 3 3 3 4 4 3 1 2 3 4 2 2 3 4 5 5 4 3 5 4 5 5 5 5 3 4 4 4 4 4 2 6 5 1 5 3 2 1 2 3 3 3 3 3 4 5 6 6 7 7 7
12 12 12 13 13 13 12 10 6 4 8 18 21 10 2 3 1 3 3 4 1 2 1 2 3 5 9 8 6 8 5 1 2 6 7 5 4 4 4 4 4 4 2 3 1 2 3 2 4 4 2 5 6 3 2 3 3 5 4 6 5 1 2 1 2 1 2 3 3 4 2 3 2 1 1 3 4 5 4 4 4 5 5 6 7 7 7 7
12 13 15 16 15 18 21 19 16 16 18 20 12 2 4 3 2 5 5 3 1 2 3 1 3 6 7 6 5 7 5 3 3 4 6 6 5 4 2 2 7 7 2 4 3 1 2 4 4 1 2 3 7 5 2 2 4 5 5 6 5 3 3 2 2 0 2 3 2 5 3 1 0 1 1 2 4 4 5 6 6 6 6 6 7 7 7 6
14 15 18 20 20 24 25 22 21 19 16 12 4 3 3 2 3 4 5 5 2 2 3 3 0 5 7 5 5 7 5 1 3 5 5 5 5 5 2 1 5 6 4 3 3 3 4 3 4 4 3 4 8 7 7 7 6 6 5 6 5 4 5 4 3 3 3 1 2 5 2 1 2 1 2 2 3 3 5 5 5 6 6 5 7 8 7 8
16 18 20 22 23 23 21 19 19 14 7 3 3 4 3 4 3 1 2 3 2 2 4 6 2 4 6 3 4 8 5 1 4 5 4 6 5 5 5 2 4 4 4 4 2 1 4 4 7 3 1 6 9 6 6 7 4 2 3 6 3 5 5 3 3 4 5 3 2 3 1 1 2 1 2 2 3 3 4 5 5 5 5 6 7 7 7 8
18 18 17 18 20 17 12 12 14 12 5 2 3 2 3 3 2 1 0 2 2 2 5 8 2 5 4 2 4 7 3 2 5 4 2 5 4 4 6 4 4 5 5 4 2 1 3 3 6 1 2 6 8 6 5 6 4 2 3 4 4 4 7 6 2 1 4 4 1 1 1 0 0 1 2 3 2 2 4 4 4 4 6 7 7 7 7 7
16 15 12 15 17 11 6 9 15 14 6 2 3 4 2 2 3 2 2 5 4 1 2 4 1 4 4 2 4 7 3 2 4 3 2 3 1 3 5 3 3 6 6 4 2 2 4 2 5 1 4 5 4 7 3 2 5 5 4 6 3 3 5 5 3 3 4 3 0 2 1 3 2 1 3 6 6 5 5 4 3 4 6 7 7 7 8 8
15 11 10 14 13 6 6 14 20 14 3 2 4 3 2 2 3 2 3 6 5 1 1 3 2 2 4 4 4 6 6 3 3 3 3 2 2 4 6 3 3 6 7 5 2 1 3 0 6 2 2 2 2 7 4 4 2 4 5 5 4 4 2 2 3 2 2 3 0 2 2 2 3 2 4 8 8 7 6 4 4 4 6 7 7 8 8 8
11 6 5 7 5 5 13 20 19 8 1 3 4 2 2 2 4 6 6 5 3 1 2 5 4 1 3 5 4 5 6 6 5 3 2 2 1 2 4 3 4 6 7 6 4 1 2 3 3 3 1 1 3 3 3 0 4 5 4 4 2 3 4 3 3 3 4 4 2 1 1 3 3 3 5 8 8 7 6 5 4 5 7 8 7 7 7 7
6 3 2 3 0 10 19 19 10 2 1 3 3 2 2 2 3 8 8 4 2 2 4 6 3 1 2 4 5 5 5 5 5 3 1 2 2 1 2 0 3 5 6 6 5 1 2 3 2 4 4 1 1 1 5 6 3 4 3 2 1 2 3 3 2 2 4 5 3 3 1 5 4 3 4 7 7 6 5 5 4 6 8 8 7 7 7 6
2 2 1 0 6 17 19 10 3 2 2 2 2 2 2 2 3 9 9 5 4 5 6 7 4 2 2 3 4 4 4 3 3 3 1 1 2 1 0 1 3 3 4 5 5 2 1 2 3 2 4 2 2 4 4 7 6 5 4 5 5 4 4 4 2 1 2 4 4 5 3 5 4 1 3 6 6 5 5 6 6 6 8 7 7 7 7 7
2 1 1 4 14 19 11 2 1 2 2 2 2 1 2 3 3 6 7 4 5 6 5 6 5 3 1 2 3 3 4 3 2 2 2 2 3 2 1 1 3 4 6 4 3 3 3 3 3 0 1 1 4 4 0 4 6 6 4 4 5 4 5 6 4 3 2 3 2 4 2 4 3 1 3 6 6 5 5 6 6 6 6 7 7 7 7 7
2 1 2 8 18 12 2 1 2 1 2 2 2 2 2 3 2 3 5 3 3 3 3 3 3 1 1 1 2 4 4 3 3 2 3 2 2 2 3 1 3 4 5 3 2 2 2 3 3 0 3 3 4 4 4 3 6 7 3 2 3 3 3 5 5 4 4 3 2 4 1 3 3 1 3 6 6 6 6 5 6 6 5 6 7 7 7 7
2 1 2 9 15 4 3 3 3 2 3 2 2 2 3 3 3 4 6 3 2 2 3 3 1 1 1 2 3 3 3 3 3 1 3 3 1 1 3 2 4 4 2 3 5 3 2 2 3 3 2 4 4 5 5 5 4 3 1 3 2 4 6 5 3 4 3 4 4 5 2 4 2 3 6 7 8 8 6 5 5 6 5 6 6 6 7 7
2 0 3 5 9 2 2 2 2 3 4 1 1 2 3 3 4 7 9 7 4 3 3 3 2 1 2 3 4 3 3 4 2 0 2 2 1 2 4 5 3 2 1 2 4 5 3 2 3 5 4 3 1 1 1 1 2 2 2 3 3 4 7 5 3 4 3 4 4 5 4 3 3 7 9 8 9 8 7 6 6 6 6 6 5 6 6 6
1 1 2 2 3 3 2 2 1 2 3 2 1 2 3 3 5 6 8 6 4 3 2 3 2 3 4 4 5 6 6 6 4 3 3 2 0 1 3 3 4 4 5 7 6 5 5 3 3 5 5 5 6 4 3 2 3 2 2 4 5 2 4 6 5 3 4 5 2 3 6 8 7 9 9 8 8 8 6 6 6 6 6 6 5 5 5 6
1 1 3 3 2 3 3 3 3 1 2 4 2 2 3 3 4 3 3 3 1 1 1 3 3 3 3 4 6 4 5 6 7 5 3 2 1 1 3 2 4 5 5 6 5 3 6 3 2 5 5 1 3 2 1 4 5 3 3 3 4 3 4 7 5 4 6 8 2 5 8 13 10 9 9 8 8 8 7 6 6 6 6 5 5 6 6 7
1 1 1 1 1 2 3 3 3 3 2 2 2 1 1 1 3 2 3 2 2 3 1 2 6 5 2 3 5 3 2 6 6 3 2 2 1 2 4 3 5 6 4 4 4 3 6 2 0 4 5 6 5 3 5 8 6 6 6 5 5 5 4 5 4 4 4 5 5 7 10 10 8 8 9 8 7 7 8 7 6 6 6 5 7 7 7 7
1 1 2 1 1 2 3 3 4 5 3 2 1 1 0 2 3 4 3 2 4 4 3 3 6 6 3 3 5 3 1 4 3 1 1 2 2 2 3 3 3 5 5 5 3 3 5 2 0 4 6 7 8 6 5 8 7 7 9 7 7 8 7 5 3 3 3 3 7 13 11 5 3 5 7 8 7 7 7 7 7 7 6 6 7 7 7 7
1 0 1 1 1 1 2 1 4 5 2 2 2 1 1 2 5 4 2 2 1 3 3 5 2 4 6 6 7 4 1 4 6 3 3 3 2 1 2 2 1 4 6 4 2 3 4 2 1 3 6 6 7 7 7 7 9 8 8 8 7 9 8 6 4 4 4 5 8 13 11 4 2 4 7 8 7 7 7 7 7 7 6 6 7 7 7 7
2 4 3 1 1 1 2 1 3 4 1 1 2 2 1 4 5 2 1 2 3 2 3 7 6 5 8 10 11 6 0 3 7 5 5 5 4 2 2 2 3 2 4 3 2 3 4 4 1 4 5 3 5 6 6 6 10 10 7 8 8 7 6 4 3 2 3 8 12 10 7 4 3 5 8 8 7 8 7 6 6 7 7 7 7 7 6 7
4 5 4 2 1 1 2 2 3 3 1 2 4 4 3 5 5 2 4 4 4 3 2 6 8 6 7 9 9 4 3 5 7 5 4 6 7 5 4 5 6 4 2 2 2 3 3 5 2 3 5 1 4 4 4 4 7 4 4 5 5 4 5 4 4 5 2 7 10 6 4 5 5 7 8 7 8 7 6 5 6 6 7 7 7 7 6 6
Wind_Direction
315 310 309 312 313 314 314 315 316 316 320 321 322 324 324 327 327 329 329 328 328 327 326 326 326 325 324 323 325 326 322 317 312 312 266 255 263 264 264 267 283 216 182 158 150 143 122 131 138 134 133 123 130 164 166 150 100 71 91 116 196 200 206 188 197 198 195 279 292 322 15 92 261 134 160 38 43 59 58 37 45 29 35 59 84 120 130 133
317 315 311 313 312 312 313 314 314 315 316 317 320 321 321 324 324 326 326 326 327 325 327 327 324 324 324 325 325 327 324 316 313 291 261 263 270 269 264 257 249 209 187 168 160 147 122 150 153 123 116 116 277 124 149 205 136 123 113 145 220 206 216 200 197 219 224 267 296 311 333 156 205 178 125 88 44 50 78 28 20 37 59 87 103 121 128 131
313 316 315 314 312 311 313 313 312 313 315 316 317 318 320 322 322 324 323 324 326 325 327 326 324 324 325 326 326 325 321 319 317 273 269 273 269 261 256 246 231 208 199 180 166 159 142 165 158 129 95 110 293 108 138 232 173 169 120 165 240 220 242 237 211 232 232 258 295 301 322 76 225 216 104 121 121 87 161 196 133 193 194 132 122 129 134 136
311 313 313 314 312 311 312 313 312 311 312 314 315 317 319 320 322 321 321 323 324 326 325 325 327 325 325 327 324 320 319 322 282 255 270 276 263 259 245 234 218 203 202 186 171 174 158 151 150 128 99 137 314 81 158 226 182 181 146 192 240 202 246 250 214 235 245 244 249 274 337 321 258 231 114 126 110 306 239 222 193 193 186 157 150 147 145 144
313 313 313 310 308 309 310 312 311 310 311 312 314 316 317 318 319 319 321 322 323 325 324 326 326 326 327 326 324 319 324 334 278 239 182 131 3 335 269 220 204 195 195 190 176 159 147 139 137 97 95 156 243 95 213 224 150 165 214 216 231 191 238 255 216 222 226 225 261 300 337 269 265 90 141 135 132 231 238 220 205 185 171 159 158 155 152 152
317 316 317 312 309 309 308 309 310 310 309 310 312 314 316 316 316 318 319 320 322 323 323 326 326 329 328 326 330 320 283 267 303 212 164 249 329 333 310 202 192 187 184 181 161 145 136 126 139 143 125 150 169 182 233 230 143 185 268 253 239 233 241 268 275 240 129 84 262 282 312 310 78 101 171 144 168 247 266 192 158 145 149 145 150 155 155 157
319 318 319 318 315 313 310 309 309 309 309 309 310 311 313 314 315 316 316 318 320 320 323 325 326 329 329 331 335 2 82 261 270 251 263 295 309 321 281 182 181 179 174 160 146 148 137 129 161 155 131 151 181 207 226 286 131 175 245 271 254 242 240 262 289 283 297 240 230 242 327 317 138 139 125 247 268 294 316 116 116 127 139 137 148 156 156 157
319 318 318 316 311 310 312 310 308 309 309 309 309 310 311 311 313 314 314 316 316 319 322 323 327 330 333 339 2 13 355 253 263 267 283 289 299 315 176 170 173 172 164 159 155 154 140 145 176 148 139 194 179 193 197 134 140 179 218 254 266 250 249 268 282 288 299 273 243 354 310 276 196 135 124 258 316 16 87 102 109 130 141 147 156 159 159 158
320 319 318 315 308 305 308 310 310 308 307 308 308 309 310 309 311 312 312 312 315 318 319 323 326 328 331 338 81 359 261 252 272 280 283 280 283 244 167 164 171 168 157 164 161 151 156 166 183 168 166 193 173 178 172 169 229 206 204 229 264 271 276 290 285 287 298 282 344 353 290 278 260 157 141 268 31 82 100 104 118 139 151 161 164 167 165 164
321 319 316 314 310 305 304 307 308 308 308 307 307 308 308 308 308 309 310 309 313 314 316 323 322 329 331 332 106 229 259 273 302 292 281 272 230 176 164 162 168 167 157 161 163 162 172 170 170 165 151 161 181 186 151 167 207 189 186 226 248 268 289 291 283 293 320 282 254 246 269 298 332 94 233 258 123 117 112 115 133 145 162 178 177 175 172 178
319 318 316 312 312 310 306 305 306 307 307 306 306 307 305 306 306 307 307 307 310 310 314 317 321 332 328 9 124 214 266 332 42 51 35 252 189 172 166 167 170 171 161 157 184 182 161 158 154 126 161 168 167 188 187 184 183 164 154 252 264 283 304 266 269 278 224 262 221 185 243 325 10 49 232 200 132 134 128 132 150 156 176 190 187 182 182 193
317 317 316 313 312 312 311 308 308 307 307 306 304 304 305 304 304 303 304 305 305 305 309 309 316 324 304 4 223 230 241 138 114 52 28 359 184 178 172 174 178 180 171 167 202 194 164 167 154 123 206 168 133 173 218 195 155 151 140 238 286 336 324 254 256 243 175 223 192 146 333 315 313 246 250 170 134 132 128 142 159 166 188 192 192 196 195 196
316 318 316 314 310 308 309 306 307 308 307 306 303 305 305 302 301 300 300 302 300 299 304 303 295 278 228 247 242 241 243 232 251 295 288 278 210 186 181 186 188 191 189 179 191 195 191 189 155 149 171 127 168 219 127 94 93 195 128 155 291 360 327 265 266 189 169 188 156 135 202 274 262 265 263 172 142 132 133 160 170 177 194 190 200 209 209 202
316 317 315 311 307 307 311 308 308 308 307 306 305 305 303 302 300 296 296 294 293 294 295 292 256 235 175 250 265 266 259 257 264 267 265 253 214 198 194 195 195 199 201 189 141 194 205 205 117 132 178 127 220 303 14 11 23 227 138 105 348 53 282 286 284 147 159 201 151 138 202 257 264 262 238 185 160 150 153 172 178 186 194 195 209 211 218 215
317 316 310 309 307 306 310 312 310 309 309 308 307 306 303 300 295 292 291 286 285 277 265 251 211 189 35 274 277 282 257 255 254 250 250 226 194 200 213 204 203 204 207 205 190 216 205 201 112 104 254 278 72 24 353 356 8 40 152 285 347 169 259 305 285 164 156 227 131 133 199 262 253 238 219 183 176 168 162 171 182 191 193 194 211 212 223 229
316 314 308 308 308 306 307 312 312 310 311 310 309 308 302 299 295 290 284 275 270 224 207 213 197 189 269 281 284 279 235 229 248 249 239 220 200 189 194 190 191 195 197 205 206 231 193 181 150 130 214 347 100 95 54 7 339 360 144 216 247 178 251 314 308 253 183 135 102 135 181 252 265 249 242 200 187 177 163 173 186 193 193 198 211 210 221 233
313 310 307 307 308 309 308 310 311 311 312 312 313 309 305 303 293 283 270 237 196 185 180 166 176 189 254 274 294 284 248 223 241 242 213 213 207 180 158 152 136 153 159 163 189 220 201 173 170 121 78 82 129 113 97 213 251 316 29 155 217 189 208 264 301 314 29 101 173 246 191 236 286 262 216 210 193 180 174 181 189 190 194 207 209 205 225 232
311 307 308 310 311 314 313 313 313 313 314 315 316 312 313 323 295 243 175 153 133 148 183 214 173 180 260 273 271 255 301 285 250 232 198 198 198 184 156 133 121 121 119 80 133 181 216 221 106 108 127 143 145 119 145 207 192 187 161 137 218 337 222 246 261 258 27 34 181 202 239 245 290 285 206 207 189 183 194 185 186 187 197 214 207 207 229 232
310 306 308 311 311 312 313 316 314 314 317 318 322 320 323 55 82 117 131 147 134 128 198 208 181 174 274 258 239 272 318 317 268 227 187 180 182 176 147 122 120 116 117 94 137 180 162 63 90 147 177 173 176 160 169 197 167 158 161 140 138 71 260 247 256 256 200 52 220 209 214 217 253 259 220 218 185 174 191 157 173 191 202 212 198 213 233 238
307 306 311 313 310 308 309 315 315 314 320 321 331 340 20 100 83 114 125 188 214 230 227 186 192 238 303 271 7 356 334 326 293 215 182 173 161 147 125 111 95 90 128 142 162 186 135 131 178 182 182 189 195 179 159 162 140 129 113 102 130 171 276 260 254 272 191 152 256 226 199 185 207 227 227 213 153 167 185 171 187 201 205 205 185 217 236 241
303 306 312 314 312 309 307 311 312 312 317 317 327 343 284 220 140 150 271 239 239 244 256 230 202 237 266 266 337 9 351 325 330 271 184 172 150 138 174 147 113 114 157 149 139 113 118 158 208 201 187 187 186 166 143 136 112 101 112 86 32 198 253 258 237 301 271 158 262 230 167 161 212 249 284 181 159 196 199 189 199 201 201 196 188 216 232 244
303 307 312 312 311 311 309 308 308 310 307 307 313 299 256 246 112 9 317 274 257 234 241 246 227 246 258 266 284 325 3 273 307 299 177 165 150 154 179 132 140 170 152 117 110 112 126 193 226 209 172 127 101 124 125 125 107 83 118 114 319 243 275 286 274 339 11 138 258 226 119 128 259 304 360 45 175 253 258 201 211 207 207 209 205 224 244 314
304 308 313 314 314 313 312 308 306 303 296 290 270 215 225 261 2 336 320 274 283 231 221 232 229 245 252 264 264 235 198 210 261 287 177 159 157 164 149 131 154 150 124 130 132 139 155 232 222 178 139 110 86 104 108 101 94 86 123 142 244 264 320 291 284 332 10 108 212 137 97 36 337 356 28 20 354 325 349 31 65 147 221 249 270 314 7 39
306 312 314 313 314 312 312 310 303 298 294 280 253 236 242 300 328 332 317 214 282 249 213 209 203 223 233 244 217 178 200 200 199 258 184 159 145 150 147 140 143 132 143 146 132 142 189 229 172 136 143 132 114 120 120 118 123 334 158 152 196 235 213 227 279 330 350 34 103 109 72 13 353 5 7 352 358 9 5 30 42 12 343 358 12 37 59 79
308 311 312 314 316 313 312 309 300 298 312 284 260 265 300 316 325 325 268 289 282 273 230 198 191 221 217 200 167 162 186 216 208 226 188 165 154 146 155 146 134 151 156 134 127 152 212 222 132 128 161 141 121 145 161 150 153 274 228 184 192 202 213 249 317 6 27 9 16 93 79 353 323 359 11 346 4 19 9 23 15 342 344 16 84 106 88 87
308 308 311 318 315 316 316 304 292 319 315 278 250 282 321 328 332 276 199 18 283 264 194 172 179 198 191 167 160 147 118 240 217 201 186 172 166 146 141 150 105 153 151 132 139 167 202 181 135 135 158 147 132 163 199 153 128 241 235 195 193 180 183 249 284 61 83 242 294 86 113 161 313 353 360 337 4 23 17 22 9 345 336 324 160 130 108 94
303 305 312 317 313 319 319 298 312 315 297 237 251 280 311 330 332 211 185 20 285 229 153 194 187 173 177 168 159 142 146 230 177 185 186 170 171 127 130 163 112 141 150 116 154 232 158 154 145 130 134 143 144 181 208 150 125 225 235 178 172 166 179 215 185 160 209 230 325 22 107 124 13 327 330 324 360 23 21 18 4 352 340 320 309 102 106 105
298 306 314 314 308 307 296 295 307 293 240 254 303 305 321 332 317 185 69 33 262 160 137 229 188 166 164 156 161 164 212 177 131 190 185 165 168 94 122 177 144 146 153 122 168 236 155 164 177 157 139 161 181 199 189 151 140 239 218 155 160 160 173 177 137 148 324 91 280 321 45 104 202 276 322 342 24 25 13 9 3 2 357 351 8 48 78 91
300 308 312 310 303 294 291 290 279 259 264 297 306 313 323 328 177 160 45 153 244 233 126 138 158 165 128 144 179 204 261 143 144 183 154 159 174 100 132 179 143 142 156 145 180 213 169 186 183 159 158 195 201 193 169 158 184 227 156 107 96 91 89 94 109 124 42 62 227 281 13 104 225 296 343 360 32 18 352 359 6 6 17 27 31 37 50 59
295 301 304 307 301 295 301 285 265 265 290 302 307 314 320 303 148 94 118 231 253 236 111 145 181 160 142 148 188 218 247 2 118 116 114 148 156 86 101 109 108 123 125 136 182 208 302 183 162 156 177 190 186 175 168 172 178 150 120 75 57 53 42 48 54 87 76 4 253 265 2 110 163 306 355 8 27 3 337 11 17 15 32 42 40 40 41 42
288 294 299 297 292 296 303 286 275 277 291 307 317 319 311 137 83 121 188 254 267 252 61 175 196 149 155 160 168 198 217 357 119 133 132 138 117 107 106 91 79 92 110 126 195 284 341 60 166 219 194 149 130 131 155 169 139 101 108 97 84 29 19 30 354 46 97 247 267 278 344 100 133 246 343 31 49 42 20 31 36 43 51 50 48 44 41 41
293 297 295 286 282 281 263 255 278 283 290 313 325 330 122 104 344 198 240 312 325 259 262 172 197 170 167 168 161 175 170 96 148 143 143 151 145 153 150 150 143 115 167 200 173 316 308 229 251 283 230 145 122 108 57 85 110 98 100 110 112 54 33 58 306 60 151 234 277 308 330 79 105 218 346 26 47 40 34 41 40 49 53 50 52 50 47 46
304 300 291 281 276 269 256 256 270 277 295 315 328 11 96 91 220 220 253 293 15 287 288 217 191 168 161 165 166 169 151 143 182 148 143 145 145 175 170 142 157 141 166 196 158 153 241 273 282 288 252 175 135 138 138 137 155 146 137 136 136 130 131 176 255 121 210 237 297 326 348 79 239 162 57 31 43 37 42 45 41 47 48 51 58 56 57 53
302 294 289 284 277 269 262 262 267 273 294 315 346 79 99 155 229 226 232 256 310 316 308 342 116 152 160 176 169 159 144 152 165 136 138 141 144 182 187 21 174 144 112 151 164 160 157 246 233 183 212 179 158 171 168 151 151 165 160 135 144 159 148 173 198 164 175 189 325 334 19 142 214 124 82 46 32 39 55 45 43 52 47 56 61 54 53 49
299 295 294 287 278 271 264 259 257 257 272 320 56 93 164 202 247 228 206 263 328 320 317 333 331 163 171 182 162 165 158 146 158 131 136 159 158 179 174 192 205 155 112 148 193 149 138 225 245 229 170 163 171 187 148 124 122 181 140 102 145 187 139 127 177 164 153 128 21 348 35 245 255 121 97 79 41 46 67 49 41 49 48 57 58 51 51 46
302 304 298 282 276 274 263 243 231 214 192 101 90 155 214 216 231 217 247 300 318 327 326 325 307 159 161 134 158 185 179 111 154 141 137 166 159 172 176 195 195 159 134 148 188 134 114 257 274 302 192 188 175 170 157 152 152 125 120 145 204 176 117 115 166 66 93 115 52 331 128 127 304 240 175 143 133 113 93 65 54 59 60 61 57 54 49 42
306 308 293 277 279 279 253 203 185 175 166 128 152 201 238 243 237 235 320 318 313 340 358 325 267 146 156 150 162 187 186 115 157 154 148 178 188 170 177 217 186 166 168 152 179 194 144 254 288 159 193 233 165 127 102 120 140 123 150 181 177 106 91 106 125 27 54 116 250 317 154 156 163 210 184 172 173 153 128 104 86 74 70 68 60 56 46 39
308 304 283 282 287 270 206 178 164 156 149 192 200 230 231 226 269 295 320 324 317 322 13 268 239 137 153 167 171 181 177 170 175 150 141 182 244 164 162 198 179 179 190 152 111 225 132 171 292 267 175 286 66 104 72 16 71 124 154 151 119 124 134 93 125 139 114 127 172 345 327 224 192 208 192 181 171 149 139 128 106 80 72 69 59 54 45 39
301 294 289 300 300 199 175 164 155 146 126 187 201 233 234 248 299 301 302 317 311 298 279 252 240 170 168 167 158 169 172 175 171 144 131 159 220 181 169 193 176 180 190 158 134 204 112 108 276 278 226 20 36 87 140 143 21 43 98 108 77 129 155 155 142 148 144 145 150 104 312 261 221 218 191 173 160 146 143 133 111 82 65 62 56 53 45 40
277 270 311 345 198 166 158 152 149 146 156 178 197 220 272 306 297 285 286 293 283 232 237 256 258 171 195 165 150 159 155 154 152 138 128 122 114 213 231 175 145 163 174 171 169 149 67 100 192 292 330 55 112 188 180 171 124 69 94 128 91 77 115 137 94 82 129 140 146 138 206 258 243 221 178 158 148 140 133 118 96 74 66 61 53 49 40 33
245 264 291 200 165 154 147 144 166 189 165 207 228 227 290 305 277 283 284 261 240 232 228 253 270 230 183 143 153 153 122 114 121 120 124 106 118 167 255 92 134 142 134 162 184 166 113 137 160 304 1 58 239 260 208 180 164 138 149 171 157 122 116 118 100 328 98 120 159 154 184 259 258 230 164 150 145 136 122 108 85 66 65 63 52 46 38 30
258 232 110 171 165 154 143 138 190 165 160 212 230 232 279 279 269 285 291 262 237 236 223 238 251 228 168 146 155 133 106 91 77 116 147 147 150 182 271 77 152 144 123 142 205 187 151 112 107 197 335 181 260 292 243 155 127 103 119 161 140 124 123 125 165 218 90 84 144 123 122 265 267 248 167 148 139 119 108 110 100 78 62 62 54 41 37 32
234 113 58 167 167 155 92 56 146 194 216 238 277 269 250 264 271 282 292 287 251 257 246 235 229 161 118 128 128 121 112 84 53 112 143 121 142 216 287 336 138 126 104 123 198 170 127 96 94 337 307 311 308 340 12 55 82 79 47 48 102 128 135 140 165 168 127 145 150 87 76 264 272 238 160 137 118 95 88 96 103 93 66 58 54 39 33 30
255 358 46 165 171 163 4 153 154 211 225 269 307 283 268 258 245 255 268 267 238 285 302 276 250 99 78 69 92 118 130 102 54 55 118 110 124 266 343 29 131 142 131 176 176 158 165 145 103 90 24 354 355 0 357 6 48 84 54 10 61 112 105 115 125 82 104 180 158 118 169 254 236 138 131 123 110 99 91 82 82 86 71 57 53 42 34 29
272 97 56 152 181 234 323 179 173 181 198 254 289 270 279 262 245 238 242 253 243 236 284 291 292 46 50 60 74 63 62 96 108 130 112 90 26 340 359 21 81 132 168 156 128 114 130 141 114 121 138 153 162 261 241 164 53 64 74 25 22 99 114 131 122 87 132 189 145 131 173 224 157 130 127 123 114 107 101 87 75 73 71 61 53 47 37 31
269 131 84 114 201 256 280 249 245 158 166 174 232 264 234 240 278 243 221 244 246 205 236 303 325 42 41 53 76 50 25 52 90 116 116 96 64 317 340 19 56 72 90 80 66 85 103 75 87 118 136 171 187 215 233 153 105 87 65 26 7 34 105 107 108 136 168 152 137 193 166 152 152 145 141 138 124 118 114 100 87 76 70 63 57 53 44 39
308 141 153 150 191 252 275 279 270 219 177 172 179 271 223 228 295 285 206 225 237 164 288 341 11 40 41 63 88 58 17 45 63 75 88 96 156 297 331 27 42 26 69 74 36 74 99 58 46 88 77 78 175 184 57 77 91 93 78 31 2 4 78 101 130 195 160 128 167 243 170 150 157 157 150 145 131 125 122 109 97 82 72 67 59 51 42 37
227 284 225 192 172 200 219 249 228 210 225 191 176 277 261 300 319 288 254 276 4 18 64 17 3 5 27 97 108 94 37 54 44 38 73 50 66 25 356 18 28 13 49 61 14 83 104 77 30 94 65 34 28 47 82 89 86 67 63 57 35 31 72 114 158 209 161 144 187 191 165 153 149 144 142 134 122 123 121 110 99 85 71 63 58 49 38 31
124 315 283 307 342 198 192 195 180 182 221 242 232 264 312 327 290 258 267 347 7 1 68 68 342 339 9 73 105 110 122 110 76 339 128 60 50 65 42 32 9 13 51 57 21 82 102 79 107 107 78 38 17 12 65 97 99 60 45 48 60 67 73 89 124 156 131 142 156 145 136 112 88 117 121 111 105 106 105 99 93 84 70 61 57 46 32 29
102 350 306 348 319 262 183 155 147 155 211 256 249 264 161 243 259 258 296 73 105 327 47 94 36 13 51 64 76 71 238 157 131 147 165 123 93 104 112 151 250 7 33 47 10 31 83 122 203 96 74 24 7 22 46 83 100 76 38 22 45 69 67 56 73 103 91 89 112 122 120 91 48 101 100 97 101 97 89 85 84 78 67 63 61 46 30 30
297 290 292 248 263 243 166 147 121 131 166 255 225 251 230 234 242 220 50 58 141 163 120 130 120 64 59 65 69 70 109 124 110 129 165 142 122 139 135 139 148 59 28 36 18 11 71 117 116 68 79 343 340 28 35 62 86 76 40 11 16 48 68 52 35 29 114 122 118 120 131 143 147 119 97 88 91 90 84 79 77 72 63 62 64 52 34 26
338 296 282 217 224 267 174 145 115 138 193 188 197 229 239 249 258 143 83 19 20 49 88 140 125 84 65 70 75 108 167 114 96 107 127 105 87 88 86 78 86 92 96 97 51 13 90 123 125 84 96 284 305 359 8 43 78 64 6 347 349 34 73 66 25 358 17 127 133 146 153 132 126 119 104 90 85 84 79 74 74 73 70 65 61 55 37 23